Regional Weather Roundup
Issued by NWS

Home | Current Version | Previous Version | Graphics & Text | Print | Product List | Glossary On
Versions: 1 2 3 4 5 6 7 8 9 10 11 12 13 14 15 16 17 18 19 20 21 22 23 24 25 26 27 28 29 30 31 32 33 34 35 36 37 38 39 40 41 42 43 44 45 46 47 48 49 50
000
ASUS43 KOAX 291102
RWRNE

WEATHER ROUNDUP FOR NEBRASKA
NATIONAL WEATHER SERVICE OMAHA NE
600 AM CDT SAT APR 29 2017

NOTES: SATELLITE DATA IS BEING USED TO AUGMENT CLOUD COVER ABOVE
       12000 FEET.
       "FAIR" INDICATES FEW OR NO CLOUDS BELOW 12,000 FEET WITH NO
       SIGNIFICANT WEATHER AND/OR OBSTRUCTIONS TO VISIBILITY.

  * THESE STATIONS DO NOT REPORT WEATHER SUCH AS RAIN...SNOW OR FOG.

NEZ001>004-019>022-054>056-291200-
NEBRASKA PANHANDLE

CITY           SKY/WX    TMP DP  RH WIND       PRES   REMARKS
SCOTTSBLUFF    CLOUDY    33  27  78 N7        30.16R WCI  27
ALLIANCE       CLOUDY    32  28  85 N9        30.14R WCI  24
CHADRON        CLOUDY    31  28  89 CALM      30.19R
KIMBALL        CLOUDY    32  31  95 N6        30.12R WCI  26
SIDNEY         CLOUDY    33  30  88 N10       30.12R WCI  25
$$

NEZ057>060-069>072-079>082-291200-
SOUTHWEST NEBRASKA

CITY           SKY/WX    TMP DP  RH WIND       PRES   REMARKS
NORTH PLATTE   CLOUDY    39  31  72 NE10      30.11R WCI  32
IMPERIAL       CLOUDY    37  29  72 NE15      30.09R WCI  28
LEXINGTON      CLOUDY    40  32  74 NE13G18   30.10R WCI  32
MCCOOK         CLOUDY    39  33  79 NE15      30.05R WCI  31
OGALLALA       CLOUDY    39  31  74 NE8       30.11R WCI  33
$$

NEZ005>010-023>029-035>040-094-291200-
NORTH CENTRAL NEBRASKA

CITY           SKY/WX    TMP DP  RH WIND       PRES   REMARKS
VALENTINE      CLOUDY    39  20  46 N8        30.15R WCI  33
AINSWORTH      PTCLDY    34  26  74 N6        30.15R WCI  29
BROKEN BOW     CLOUDY    39  28  64 NE14      30.11R WCI  31
O`NEILL        CLOUDY    37  25  61 N9        30.14R WCI  31
ORD            CLOUDY    39  28  64 NE13      30.09R WCI  31
THEDFORD       CLOUDY    38  28  65 NE10      30.14R WCI  31
$$

NEZ041-046>049-061>064-073>077-083>087-291200-
SOUTH CENTRAL NEBRASKA

CITY           SKY/WX    TMP DP  RH WIND       PRES   REMARKS
GRAND ISLAND   CLOUDY    40  36  86 NE14      30.08R WCI  32
AURORA         CLOUDY    40  37  87 NE15      30.06S WCI  32
HASTINGS       CLOUDY    40  35  83 NE18G26   30.06R WCI  31
HEBRON         RAIN      40  37  89 NE14G22   30.03F WCI  33
HOLDREGE       CLOUDY    39  33  77 NE18G28   30.07R WCI  30
KEARNEY *      CLOUDY    39  32  75 NE20      30.09R WCI  30
YORK           CLOUDY    41  36  81 NE17G23   30.07F
$$

NEZ011>018-030>034-042>045-291200-
NORTHEAST NEBRASKA

CITY           SKY/WX    TMP DP  RH WIND       PRES   REMARKS
NORFOLK        CLOUDY    40  28  62 NE13      30.12R WCI  32
ALBION         CLOUDY    40  30  66 NE12      30.08F WCI  34
BLAIR          CLOUDY    42  35  74 N16       30.05F
FREMONT        CLOUDY    42  35  77 N3        30.13R
TEKAMAH        CLOUDY    41  35  79 N10       30.11R
WAYNE          CLOUDY    38  30  72 NE10      30.14R WCI  32
$$

NEZ050>053-065>068-078-088>093-291200-
SOUTHEAST NEBRASKA

CITY           SKY/WX    TMP DP  RH WIND       PRES   REMARKS
LINCOLN        CLOUDY    43  35  73 N12       30.09R
OMAHA EPPLEY   CLOUDY    43  34  70 N7        30.09R
BEATRICE       RAIN      42  38  86 N7        30.09R
FALLS CITY     CLOUDY    44  39  82 NE10      29.99R
NEBRASKA CITY  CLOUDY    43  35  73 NE14      30.04R
PLATTSMOUTH    CLOUDY    42  33  69 NE10      30.07R
$$

NEZ044-045-051>053-067-291200-
OMAHA AREA

CITY           SKY/WX    TMP DP  RH WIND       PRES   REMARKS
OMAHA EPPLEY   CLOUDY    43  34  70 N7        30.09R
BLAIR          CLOUDY    42  35  74 N16       30.05F
FREMONT        CLOUDY    42  35  77 N3        30.13R
MILLARD        CLOUDY    46  35  67 NE5       30.09R
OFFUTT AFB     CLOUDY    43  34  70 NE8       30.08R
PLATTSMOUTH    CLOUDY    42  33  69 NE10      30.07R
WAHOO          CLOUDY    42  36  79 N10       30.11R
$$



USA.gov is the U.S. government's official web portal to all federal, state and local government web resources and services.